Weather History for Cairo, Egypt

Change the Weather History Date:

Tuesday, August 20, 2013

  Actual Average Record
Temperature  
Mean Temperature 86 °F -  
Max Temperature 96 °F 90 °F 100 °F (1999)
Min Temperature 75 °F 71 °F 71 °F (1997)
Cooling Degree Days 20    
Growing Degree Days 36 (Base 50)    
Moisture  
Dew Point 69 °F    
Average Humidity 61    
Maximum Humidity 83    
Minimum Humidity 34    
Precipitation  
Precipitation 0.00 in 0.00 in - ()
Sea Level Pressure  
Sea Level Pressure 29.77 in    
Wind  
Wind Speed 8 mph ()    
Max Wind Speed 14 mph    
Max Gust Speed -    
Visibility 6.1 miles    
Events      
Averages and records for this station are not official NWS values.
T = Trace of Precipitation, MM = Missing Value Source: Averaged Metar Reports

Daily Weather History Graph

Daily Weather History Graph

Search for Another Location

Airport:

Trip Planner

Search our weather history database for the weather conditions in past years. The results will help you decide how hot, cold, wet, or windy it might be!

Date:

Astronomy

Aug. 20, 2013 Rise Set
Actual Time 5:24 AM EET 6:30 PM EET
Civil Twilight 4:59 AM EET 6:55 PM EET
Nautical Twilight 4:29 AM EET 7:24 PM EET
Astronomical Twilight 3:59 AM EET 7:55 PM EET
Moon 5:52 PM EET (8/20) 4:30 AM EET (8/20)
Length of Visible Light 13h 55m
Length of Day
13h 06m
Waxing Gibbous, 99% of the Moon is Illuminated
Aug 20
Waxing Gibbous
Aug 21
Full
Aug 28
Last Quarter
Sep 5
New
Sep 12
First Quarter

Hourly Weather History & Observations

Time (EET) Temp. Heat Index Dew Point Humidity Pressure Visibility Wind Dir Wind Speed Gust Speed Precip Events Conditions
12:00 AM 78.8 °F - 73.4 °F 83% 29.77 in - NNW 9.2 mph - N/A   Clear
12:30 AM 78.8 °F - 73.4 °F 83% 29.77 in - NNW 9.2 mph - N/A   Clear
1:00 AM 77.0 °F - 71.6 °F 83% 29.77 in - NW 8.1 mph - N/A   Clear
1:30 AM 77.0 °F - 71.6 °F 83% 29.77 in - NW 6.9 mph - N/A   Clear
2:00 AM 77 °F - 72 °F 79% 29.76 in 6 mi NW 5.8 mph - -   Partly Cloudy
2:00 AM 77.0 °F - 71.6 °F 83% 29.77 in - NW 5.8 mph - N/A   Clear
2:30 AM 77.0 °F - 71.6 °F 83% 29.74 in - NW 6.9 mph - N/A   Clear
3:00 AM 77.0 °F - 69.8 °F 78% 29.77 in - NW 6.9 mph - N/A   Clear
3:30 AM 77.0 °F - 69.8 °F 78% 29.77 in - NW 8.1 mph - N/A   Clear
4:00 AM 77.0 °F - 69.8 °F 78% 29.77 in - NW 9.2 mph - N/A   Clear
4:30 AM 77.0 °F - 68.0 °F 74% 29.77 in - NNW 9.2 mph - N/A   Clear
5:00 AM 77.0 °F - 68.0 °F 74% 29.77 in - NNW 8.1 mph - N/A   Clear
5:30 AM 77.0 °F - 68.0 °F 74% 29.77 in - NNW 8.1 mph - N/A   Clear
6:00 AM 77.0 °F - 68.0 °F 74% 29.80 in - NNW 8.1 mph - N/A   Clear
6:30 AM 77.0 °F - 68.0 °F 74% 29.80 in - NNW 8.1 mph - N/A   Clear
7:00 AM 77.0 °F - 68.0 °F 74% 29.80 in 6.2 mi NNW 8.1 mph - N/A   Scattered Clouds
7:30 AM 78.8 °F - 68.0 °F 69% 29.80 in 6.2 mi NNW 8.1 mph - N/A   Scattered Clouds
8:00 AM 80 °F - 69 °F 61% 29.80 in 6 mi WNW 9.2 mph - -   Partly Cloudy
8:00 AM 78.8 °F - 69.8 °F 74% 29.80 in 6.2 mi WNW 9.2 mph - N/A   Scattered Clouds
8:30 AM 80.6 °F 83.9 °F 69.8 °F 70% 29.80 in 6.2 mi WNW 9.2 mph - N/A   Scattered Clouds
9:00 AM 82.4 °F 86.3 °F 69.8 °F 66% 29.80 in - NW 5.8 mph - N/A   Clear
9:30 AM 84.2 °F 88.4 °F 69.8 °F 62% 29.80 in - NW 5.8 mph - N/A   Clear
10:00 AM 84.2 °F 88.4 °F 69.8 °F 62% 29.80 in - WNW 5.8 mph - N/A   Clear
10:30 AM 86.0 °F 90.4 °F 69.8 °F 58% 29.80 in - WNW 3.5 mph - N/A   Clear
11:00 AM 87.8 °F 91.4 °F 68.0 °F 52% 29.77 in - NNW 5.8 mph - N/A   Clear
11:30 AM 89.6 °F 92.2 °F 66.2 °F 46% 29.77 in - West 5.8 mph - N/A   Clear
12:00 PM 89.6 °F 92.2 °F 66.2 °F 46% 29.77 in - NNW 6.9 mph - N/A   Clear
12:30 PM 89.6 °F 92.2 °F 66.2 °F 46% 29.77 in - NNW 6.9 mph - N/A   Clear
1:00 PM 89.6 °F 92.2 °F 66.2 °F 46% 29.77 in - NW 9.2 mph - N/A   Clear
1:30 PM 91.4 °F 94.0 °F 66.2 °F 43% 29.77 in - NW 9.2 mph - N/A   Clear
2:00 PM 94 °F - 69 °F 34% 29.74 in 6 mi NNW 8.1 mph - -  
2:00 PM 95.0 °F 99.5 °F 68.0 °F 41% 29.74 in - NNW 8.1 mph - N/A   Clear
2:30 PM 95.0 °F 99.5 °F 68.0 °F 41% 29.74 in - NNW 8.1 mph - N/A   Clear
3:00 PM 95.0 °F 97.0 °F 64.4 °F 36% 29.74 in - NNW 9.2 mph - N/A   Clear
3:30 PM 95.0 °F 97.0 °F 64.4 °F 36% 29.74 in - NNW 9.2 mph - N/A   Clear
4:00 PM 95.0 °F 97.0 °F 64.4 °F 36% 29.74 in - NW 11.5 mph - N/A   Clear
4:30 PM 95.0 °F 97.0 °F 64.4 °F 36% 29.74 in - NW 11.5 mph - N/A   Clear
5:00 PM 93.2 °F 96.2 °F 66.2 °F 41% 29.74 in - NNW 12.7 mph - N/A   Clear
5:30 PM 93.2 °F 96.2 °F 66.2 °F 41% 29.74 in - NNW 12.7 mph - N/A   Clear
6:00 PM 91.4 °F 94.0 °F 66.2 °F 43% 29.74 in - NNW 13.8 mph - N/A   Clear
6:30 PM 91.4 °F 94.0 °F 66.2 °F 43% 29.74 in - NNW 13.8 mph - N/A   Clear
7:00 PM 89.6 °F 93.4 °F 68.0 °F 49% 29.74 in - NNW 13.8 mph - N/A   Clear
7:30 PM 89.6 °F 94.7 °F 69.8 °F 52% 29.77 in - North 12.7 mph - N/A   Clear
8:00 PM 88 °F - 70 °F 46% 29.78 in 6 mi North 13.8 mph - -  
8:00 PM 87.8 °F 92.6 °F 69.8 °F 55% 29.77 in - North 13.8 mph - N/A   Clear
8:30 PM 86.0 °F 91.8 °F 71.6 °F 62% 29.80 in - North 13.8 mph - N/A   Clear
9:00 PM 84.2 °F 89.6 °F 71.6 °F 66% 29.80 in - North 11.5 mph - N/A   Clear
9:30 PM 84.2 °F 89.6 °F 71.6 °F 66% 29.80 in - North 11.5 mph - N/A   Clear
10:00 PM 82.4 °F 87.2 °F 71.6 °F 70% 29.80 in - North 10.4 mph - N/A   Clear
10:30 PM 82.4 °F 87.2 °F 71.6 °F 70% 29.80 in - North 10.4 mph - N/A   Clear
11:00 PM 80.6 °F 84.6 °F 71.6 °F 74% 29.80 in - North 9.2 mph - N/A   Clear
11:30 PM 80.6 °F 84.6 °F 71.6 °F 74% 29.80 in - North 9.2 mph - N/A   Clear